Home   Weather   Luleå   Past weeks
Flag for Sweden

Past Weather in Luleå, Sweden — July 2017

Now
40 °F

Low clouds.


Feels Like: 36 °F
Forecast: 38 / 41 °F
Wind: 5 mph from Southwest

Location: Lulea / Kallax

Current Time: Nov 15, 2018 at 9:29:08 am

Latest Report: Nov 15, 2018 at 8:00 am


Visibility: 44 mi

Pressure: 29.98 "Hg

Humidity: 92%

Dew Point: 38 °F

Location of LuleåLocation

July 2017 Weather in Luleå — Graph

°F

High & Low Weather Summary for July 2017

 TemperatureHumidityPressure
High73 °F (Jul 24, 5:00 pm)98% (Jul 17, 2:00 pm)30.24 "Hg (Jul 17, 2:00 pm)
Low43 °F (Jul 6, 1:00 am)37% (Jul 1, 6:00 pm)29.41 "Hg (Jul 12, 8:00 pm)
Average58 °F77%29.79 "Hg
* Reported Jul 1 12:00 am — Jul 31 11:00 pm, Luleå. Weather by CustomWeather, © 2018

Note: Actual official high and low records may vary slightly from our data, if they occured in-between our weather recording intervals... More about our weather records

Advertising

Luleå Weather History for July 1, 2017

Scroll right to see more
 ConditionsComfort  
Time TempWeatherWind HumidityBarometerVisibility
12:00 am
Sat, Jul 1
55 °FClear.No wind69%29.90 "Hg28 mi
1:00 am52 °FClear.1 mph83%29.89 "Hg28 mi
2:00 am51 °FSunny.2 mph82%29.88 "Hg28 mi
3:00 am51 °FSunny.2 mph84%29.88 "Hg28 mi
4:00 am53 °FSunny.2 mph77%29.88 "Hg28 mi
5:00 am57 °FSunny.1 mph70%29.87 "Hg28 mi
6:00 am60 °FSunny.2 mph67%29.87 "Hg25 mi
7:00 am62 °FSunny.5 mph66%29.87 "Hg28 mi
8:00 am62 °FSunny.5 mph66%29.87 "Hg25 mi
9:00 am62 °FSunny.6 mph65%29.87 "Hg25 mi
10:00 am63 °FSunny.5 mph62%29.86 "Hg22 mi
11:00 am65 °FSunny.3 mph44%29.85 "Hg25 mi
12:00 pm67 °FSunny.5 mph50%29.85 "Hg25 mi
1:00 pm66 °FSunny.5 mph43%29.83 "Hg25 mi
2:00 pm67 °FSunny.6 mph50%29.82 "Hg18 mi
3:00 pm66 °FSunny.5 mph43%29.81 "Hg25 mi
4:00 pm67 °FSunny.5 mph40%29.79 "Hg25 mi
5:00 pm68 °FSunny.3 mph38%29.78 "Hg25 mi
6:00 pm67 °FSunny.3 mph37%29.76 "Hg28 mi
7:00 pm67 °FSunny.3 mph39%29.74 "Hg28 mi
8:00 pm67 °FSunny.2 mph37%29.73 "Hg28 mi
9:00 pm65 °FSunny.1 mph41%29.72 "Hg28 mi
10:00 pm64 °FSunny.No wind44%29.72 "Hg28 mi
11:00 pm58 °FSunny.No wind57%29.71 "Hg28 mi
Weather by CustomWeather, © 2018

See weather overview